TimeCDT,TemperatureF,Dew PointF,Humidity,Sea Level PressureIn,VisibilityMPH,Wind Direction,Wind SpeedMPH,Gust SpeedMPH,PrecipitationIn,Events,Conditions,WindDirDegrees,DateUTC
12:15 AM,44.6,24.8,46,29.99,10.0,ESE,21.9,28.8,N/A,,Clear,120,2013-04-06 05:15:00
12:35 AM,44.6,24.8,46,29.98,10.0,ESE,20.7,28.8,N/A,,Clear,120,2013-04-06 05:35:00
12:55 AM,42.8,24.8,49,29.98,10.0,ESE,20.7,28.8,N/A,,Clear,120,2013-04-06 05:55:00
1:15 AM,42.8,24.8,49,29.98,10.0,ESE,20.7,29.9,N/A,,Clear,120,2013-04-06 06:15:00
1:35 AM,42.8,21.2,42,29.97,10.0,ESE,21.9,27.6,N/A,,Clear,120,2013-04-06 06:35:00
1:55 AM,42.8,21.2,42,29.97,10.0,ESE,18.4,25.3,N/A,,Clear,120,2013-04-06 06:55:00
2:15 AM,41.0,19.4,42,29.96,10.0,ESE,19.6,25.3,N/A,,Clear,120,2013-04-06 07:15:00
2:35 AM,41.0,19.4,42,29.96,10.0,SE,18.4,26.5,N/A,,Clear,130,2013-04-06 07:35:00
2:55 AM,41.0,19.4,42,29.96,10.0,SE,17.3,23.0,N/A,,Clear,130,2013-04-06 07:55:00
3:15 AM,39.2,19.4,45,29.95,10.0,ESE,15.0,24.2,N/A,,Clear,120,2013-04-06 08:15:00
3:35 AM,39.2,19.4,45,29.94,10.0,ESE,16.1,21.9,N/A,,Scattered Clouds,120,2013-04-06 08:35:00
3:55 AM,39.2,21.2,49,29.94,10.0,ESE,17.3,21.9,N/A,,Clear,120,2013-04-06 08:55:00
4:15 AM,39.2,21.2,49,29.93,10.0,ESE,16.1,25.3,N/A,,Clear,120,2013-04-06 09:15:00
4:35 AM,39.2,21.2,49,29.91,10.0,ESE,17.3,23.0,N/A,,Scattered Clouds,120,2013-04-06 09:35:00
4:55 AM,39.2,21.2,49,29.91,10.0,SE,17.3,21.9,N/A,,Scattered Clouds,130,2013-04-06 09:55:00
5:15 AM,39.2,21.2,49,29.89,10.0,SE,19.6,24.2,N/A,,Scattered Clouds,130,2013-04-06 10:15:00
5:35 AM,39.2,23.0,52,29.89,10.0,SE,19.6,25.3,N/A,,Mostly Cloudy,130,2013-04-06 10:35:00
5:55 AM,39.2,24.8,56,29.87,10.0,SE,21.9,27.6,N/A,,Mostly Cloudy,130,2013-04-06 10:55:00
6:15 AM,39.2,24.8,56,29.86,10.0,SE,20.7,25.3,N/A,,Mostly Cloudy,130,2013-04-06 11:15:00
6:35 AM,37.4,28.4,70,29.86,7.0,SE,20.7,24.2,N/A,,Overcast,130,2013-04-06 11:35:00
6:55 AM,39.2,28.4,65,29.86,10.0,SE,17.3,24.2,0.01,,Overcast,140,2013-04-06 11:55:00
7:15 AM,39.2,28.4,65,29.83,10.0,SE,21.9,26.5,N/A,,Scattered Clouds,130,2013-04-06 12:15:00
7:35 AM,39.2,28.4,65,29.83,10.0,SE,18.4,25.3,N/A,,Scattered Clouds,130,2013-04-06 12:35:00
7:55 AM,39.2,28.4,65,29.82,10.0,SE,16.1,-,N/A,,Scattered Clouds,130,2013-04-06 12:55:00
8:15 AM,41.0,30.2,65,29.81,10.0,SE,13.8,21.9,N/A,,Scattered Clouds,130,2013-04-06 13:15:00
8:35 AM,41.0,30.2,65,29.79,10.0,SE,15.0,18.4,N/A,,Scattered Clouds,130,2013-04-06 13:35:00
8:55 AM,42.8,30.2,61,29.78,10.0,SE,16.1,-,N/A,,Scattered Clouds,130,2013-04-06 13:55:00
9:15 AM,44.6,30.2,57,29.76,10.0,SE,16.1,-,N/A,,Scattered Clouds,130,2013-04-06 14:15:00
9:35 AM,46.4,33.8,62,29.75,10.0,SE,17.3,21.9,N/A,,Clear,130,2013-04-06 14:35:00
9:55 AM,48.2,35.6,62,29.73,10.0,SE,12.7,21.9,N/A,,Clear,140,2013-04-06 14:55:00
10:15 AM,50.0,35.6,58,29.72,10.0,SE,13.8,19.6,N/A,,Clear,140,2013-04-06 15:15:00
10:35 AM,55.4,39.2,54,29.72,10.0,South,18.4,23.0,N/A,,Clear,170,2013-04-06 15:35:00
10:55 AM,57.2,39.2,51,29.71,10.0,South,15.0,23.0,N/A,,Clear,170,2013-04-06 15:55:00
11:15 AM,60.8,37.4,42,29.70,10.0,South,17.3,-,N/A,,Clear,170,2013-04-06 16:15:00
11:35 AM,60.8,39.2,45,29.69,10.0,South,17.3,-,N/A,,Clear,170,2013-04-06 16:35:00
11:55 AM,62.6,37.4,39,29.68,10.0,South,17.3,26.5,N/A,,Clear,190,2013-04-06 16:55:00
12:15 PM,64.4,37.4,37,29.67,10.0,South,18.4,29.9,N/A,,Clear,190,2013-04-06 17:15:00
12:35 PM,62.6,39.2,42,29.66,10.0,South,13.8,21.9,N/A,,Clear,190,2013-04-06 17:35:00
12:55 PM,62.6,39.2,42,29.65,10.0,SSW,13.8,24.2,N/A,,Clear,200,2013-04-06 17:55:00
1:15 PM,62.6,41.0,45,29.64,10.0,South,13.8,-,N/A,,Clear,190,2013-04-06 18:15:00
1:35 PM,62.6,41.0,45,29.63,10.0,South,11.5,17.3,N/A,,Clear,190,2013-04-06 18:35:00
1:55 PM,64.4,41.0,42,29.63,10.0,SSW,16.1,26.5,N/A,,Clear,200,2013-04-06 18:55:00
2:15 PM,66.2,39.2,37,29.62,10.0,South,23.0,28.8,N/A,,Clear,190,2013-04-06 19:15:00
2:35 PM,64.4,41.0,42,29.61,10.0,SSW,17.3,-,N/A,,Mostly Cloudy,200,2013-04-06 19:35:00
2:55 PM,64.4,42.8,45,29.61,10.0,SW,12.7,24.2,N/A,,Overcast,220,2013-04-06 19:55:00
3:15 PM,64.4,42.8,45,29.61,10.0,SW,12.7,-,N/A,,Overcast,220,2013-04-06 20:15:00
3:35 PM,64.4,42.8,45,29.59,10.0,SW,15.0,20.7,N/A,,Overcast,220,2013-04-06 20:35:00
3:55 PM,64.4,44.6,49,29.59,10.0,SSW,11.5,-,N/A,,Overcast,210,2013-04-06 20:55:00
4:15 PM,62.6,44.6,52,29.59,10.0,SSW,12.7,19.6,N/A,Rain,Light Rain,210,2013-04-06 21:15:00
4:35 PM,62.6,46.4,55,29.59,10.0,SSW,11.5,-,N/A,Rain,Light Rain,200,2013-04-06 21:35:00
4:55 PM,60.8,48.2,63,29.58,10.0,SSW,11.5,-,N/A,Rain,Light Rain,200,2013-04-06 21:55:00
5:15 PM,59.0,50.0,72,29.59,10.0,SSW,9.2,-,0.01,Rain,Light Rain,210,2013-04-06 22:15:00
5:35 PM,57.2,50.0,77,29.59,10.0,SSW,4.6,-,0.01,,Light Drizzle,200,2013-04-06 22:35:00
5:55 PM,57.2,50.0,77,29.58,10.0,South,9.2,-,0.01,,Overcast,180,2013-04-06 22:55:00
6:15 PM,59.0,48.2,67,29.59,10.0,SSW,8.1,-,N/A,,Overcast,200,2013-04-06 23:15:00
6:35 PM,57.2,50.0,77,29.58,10.0,SSW,4.6,-,N/A,,Overcast,200,2013-04-06 23:35:00
6:55 PM,57.2,48.2,72,29.58,10.0,SSW,9.2,-,N/A,,Overcast,200,2013-04-06 23:55:00
7:15 PM,57.2,48.2,72,29.58,10.0,SSW,10.4,-,N/A,,Overcast,200,2013-04-07 00:15:00
7:35 PM,57.2,48.2,72,29.58,10.0,SSW,6.9,-,0.04,Rain,Light Rain,210,2013-04-07 00:35:00
7:55 PM,55.4,48.2,77,29.60,10.0,WSW,9.2,-,0.04,,Overcast,240,2013-04-07 00:55:00
8:15 PM,55.4,48.2,77,29.62,10.0,WNW,12.7,19.6,N/A,,Overcast,290,2013-04-07 01:15:00
8:35 PM,53.6,46.4,77,29.62,10.0,WNW,18.4,26.5,N/A,,Overcast,290,2013-04-07 01:35:00
8:55 PM,51.8,44.6,76,29.64,10.0,West,20.7,26.5,N/A,,Mostly Cloudy,280,2013-04-07 01:55:00
9:15 PM,51.8,44.6,76,29.66,7.0,West,12.7,20.7,N/A,,Mostly Cloudy,280,2013-04-07 02:15:00
9:35 PM,50.0,44.6,82,29.68,7.0,WNW,13.8,21.9,N/A,,Overcast,290,2013-04-07 02:35:00
9:55 PM,50.0,44.6,82,29.68,7.0,WNW,15.0,21.9,N/A,,Overcast,290,2013-04-07 02:55:00
10:15 PM,48.2,42.8,82,29.69,7.0,WNW,23.0,31.1,N/A,,Overcast,300,2013-04-07 03:15:00
10:35 PM,48.2,42.8,82,29.70,7.0,WNW,17.3,-,N/A,,Overcast,290,2013-04-07 03:35:00
10:55 PM,48.2,42.8,82,29.70,7.0,WNW,15.0,20.7,N/A,,Overcast,290,2013-04-07 03:55:00
11:15 PM,48.2,42.8,82,29.71,7.0,WNW,15.0,-,N/A,,Overcast,290,2013-04-07 04:15:00
11:35 PM,48.2,42.8,82,29.72,7.0,WNW,18.4,26.5,N/A,,Overcast,300,2013-04-07 04:35:00
11:55 PM,48.2,41.0,76,29.72,10.0,NW,13.8,27.6,N/A,,Overcast,320,2013-04-07 04:55:00